Tracking 19170 objects as of 23-May-2018
HD Live streaming from Space Station
objects crossing your sky now

PSLV R/B

Track PSLV R/B now!
10-day predictions


NORAD ID: 39093
Int'l Code: 2013-009H
Perigee: 710.7 km
Apogee: 776.1 km
Inclination: 98.4 °
Period: 99.5 minutes
Semi major axis: 7114 km
RCS: 7.397 m2 (large)
Launch date: February 25, 2013
Source: India (IND)
Launch site: SRIHARIKOTA (SRI)

Note: This is a ROCKET BODY
aabbcc
Your satellite tracking list
Your tracking list is empty




NASA's NSSDC Master Catalog

Two Line Element Set (TLE):
1 39093U 13009H   18142.63473036 +.00000018 +00000-0 +17515-4 0  9997
2 39093 098.4450 020.1611 0045946 036.0683 324.3594 14.46749511276334
Source of the keplerian elements: AFSPC